Tracking 19831 objects as of 23-Aug-2019
HD Live streaming from Space Station
objects crossing your sky now

COSMOS 2251 DEB


COSMOS 2251 DEB is no longer on orbit


NORAD ID: 35654
Int'l Code: 1993-036ANV
Perigee: N/A
Apogee: N/A
Inclination: N/A
Period: N/A
Semi major axis: N/A
RCS: N/A
Launch date: June 16, 1993
Source: Commonwealth of Independent States (former USSR) (CIS)
Launch site: PLESETSK MISSILE AND SPACE COMPLEX (PKMTR)
Decay date: 2015-01-10

Note: This is SATELLITE DEBRIS
aabbcc
Your satellite tracking list
Your tracking list is empty




NASA's NSSDC Master Catalog

Two Line Element Set (TLE):
1 35654U 93036ANV 15010.04337227  .04302222  27164-1  90708-2 0  9991
2 35654 074.0334 031.9313 0019390 011.4779 348.6898 16.01940589306690
Source of the keplerian elements: AFSPC